KC5NAM Weather Reports


Display with metric or nautical units.
time (UTC)temp
F
wind
direction
speed
MPH
gust
MPH
rain 1hr
in
rain 24hr
in
rain mn
in
humidity
%
barometer
mb
20260505002534 80 146 2.0 11.0 0.00 0.00 0.00 69 1013.1
20260505002034 81 137 5.0 15.0 0.00 0.00 0.00 68 1013.3
20260505001545 81 113 2.0 15.0 0.00 0.00 0.00 68 1013.3
20260505001033 81 171 7.0 14.0 0.00 0.00 0.00 67 1013.2
20260505000533 81 182 4.0 14.0 0.00 0.00 0.00 67 1013.6
20260505000052 81 164 5.0 11.0 0.00 0.00 0.00 67 1013.6
20260504235538 81 167 5.0 12.0 0.00 0.00 0.00 67 1013.6
20260504235035 81 178 3.0 12.0 0.00 0.00 0.00 68 1013.7
20260504234540 82 165 2.0 11.0 0.00 0.00 0.00 68 1013.7
20260504234034 81 144 5.0 11.0 0.00 0.00 0.00 68 1013.7
20260504233534 81 104 4.0 13.0 0.00 0.00 0.00 68 1013.7
20260504233049 81 121 5.0 13.0 0.00 0.00 0.00 67 1013.9
20260504232535 82 40 5.0 13.0 0.00 0.00 0.00 66 1014.0
20260504232034 82 81 4.0 13.0 0.00 0.00 0.00 65 1014.0
20260504231538 83 107 6.0 13.0 0.00 0.00 0.00 64 1014.0
20260504231034 83 159 5.0 14.0 0.00 0.00 0.00 61 1014.1
20260504230534 83 154 5.0 14.0 0.00 0.00 0.00 60 1014.2
20260504230048 83 163 6.0 12.0 0.00 0.00 0.00 60 1014.3
20260504225533 83 163 6.0 12.0 0.00 0.00 0.00 60 1014.2
20260504225033 83 181 4.0 12.0 0.00 0.00 0.00 61 1014.2
20260504224558 83 163 6.0 12.0 0.00 0.00 0.00 60 1014.3
20260504224036 83 174 5.0 13.0 0.00 0.00 0.00 59 1014.2
20260504223535 83 145 3.0 13.0 0.00 0.00 0.00 61 1014.1
20260504223043 83 151 6.0 15.0 0.00 0.00 0.00 61 1014.2
20260504222535 83 149 7.0 16.0 0.00 0.00 0.00 59 1014.3
20260504222034 84 137 6.0 16.0 0.00 0.00 0.00 59 1014.4
20260504221541 84 142 7.0 14.0 0.00 0.00 0.00 58 1014.3
20260504221035 85 114 5.0 11.0 0.00 0.00 0.00 58 1014.3
20260504220534 84 167 5.0 13.0 0.00 0.00 0.00 60 1014.4
20260504220048 84 177 5.0 15.0 0.00 0.00 0.00 58 1014.4
20260504215533 85 159 8.0 15.0 0.00 0.00 0.00 57 1014.3
20260504215035 85 167 8.0 15.0 0.00 0.00 0.00 57 1014.5
20260504214546 85 153 6.0 12.0 0.00 0.00 0.00 59 1014.5
20260504214035 84 157 6.0 12.0 0.00 0.00 0.00 60 1014.6
20260504213535 84 169 4.0 12.0 0.00 0.00 0.00 59 1015.0
20260504213045 84 111 6.0 12.0 0.00 0.00 0.00 60 1015.0
20260504212534 84 210 5.0 12.0 0.00 0.00 0.00 60 1015.1
20260504212035 83 171 4.0 9.0 0.00 0.00 0.00 60 1015.3
20260504211543 83 161 3.0 9.0 0.00 0.00 0.00 62 1015.4
20260504211034 82 159 3.0 10.0 0.00 0.00 0.00 61 1015.4
20260504210534 82 166 5.0 15.0 0.00 0.00 0.00 61 1015.4
20260504210056 82 184 5.0 15.0 0.00 0.00 0.00 61 1015.6
20260504205535 82 172 6.0 15.0 0.00 0.00 0.00 60 1015.6
20260504205034 83 138 5.0 15.0 0.00 0.00 0.00 60 1015.7
20260504204547 83 184 5.0 12.0 0.00 0.00 0.00 60 1015.8
20260504204034 83 154 5.0 12.0 0.00 0.00 0.00 60 1015.9
20260504203534 82 146 4.0 13.0 0.00 0.00 0.00 60 1016.0
20260504203043 82 162 5.0 13.0 0.00 0.00 0.00 60 1016.1
20260504202534 83 157 7.0 12.0 0.00 0.00 0.00 59 1016.2
20260504202034 82 147 3.0 12.0 0.00 0.00 0.00 60 1016.3
20260504201547 82 174 3.0 13.0 0.00 0.00 0.00 60 1016.3
20260504201035 83 154 6.0 13.0 0.00 0.00 0.00 59 1016.3
20260504200535 83 163 6.0 13.0 0.00 0.00 0.00 59 1016.4
20260504200052 83 140 7.0 13.0 0.00 0.00 0.00 60 1016.4
20260504195534 83 169 4.0 14.0 0.00 0.00 0.00 60 1016.4
20260504195034 82 168 5.0 14.0 0.00 0.00 0.00 60 1016.4
20260504194540 83 174 4.0 11.0 0.00 0.00 0.00 60 1016.4
20260504194034 83 178 4.0 16.0 0.00 0.00 0.00 59 1016.5
20260504193535 83 172 7.0 16.0 0.00 0.00 0.00 59 1016.5
20260504193051 83 161 5.0 14.0 0.00 0.00 0.00 59 1016.6
20260504192535 83 184 3.0 14.0 0.00 0.00 0.00 60 1016.6
20260504192034 83 162 6.0 15.0 0.00 0.00 0.00 59 1016.7
20260504191605 82 153 3.0 15.0 0.00 0.00 0.00 61 1016.8
20260504191034 83 149 6.0 15.0 0.00 0.00 0.00 58 1016.9
20260504190534 83 173 7.0 12.0 0.00 0.00 0.00 58 1016.8
20260504190047 83 170 5.0 14.0 0.00 0.00 0.00 60 1016.8
20260504185534 83 165 5.0 14.0 0.00 0.00 0.00 59 1017.1
20260504185037 82 145 5.0 12.0 0.00 0.00 0.00 60 1017.3
20260504184544 82 161 5.0 12.0 0.00 0.00 0.00 59 1017.4
20260504184037 82 136 5.0 12.0 0.00 0.00 0.00 61 1017.2
20260504183535 82 196 7.0 12.0 0.00 0.00 0.00 60 1017.1
20260504183041 81 175 5.0 9.0 0.00 0.00 0.00 62 1017.3
20260504182534 81 138 5.0 12.0 0.00 0.00 0.00 62 1017.4
20260504182034 81 0 4.0 15.0 0.00 0.00 0.00 63 1017.4
20260504181540 81 171 7.0 15.0 0.00 0.00 0.00 63 1017.5
20260504181035 80 132 4.0 12.0 0.00 0.00 0.00 64 1017.5
20260504180538 80 151 5.0 13.0 0.00 0.00 0.00 63 1017.6
20260504180051 81 199 4.0 13.0 0.00 0.00 0.00 63 1017.7
20260504175536 81 202 6.0 12.0 0.00 0.00 0.00 61 1017.9
20260504175038 81 163 6.0 13.0 0.00 0.00 0.00 64 1017.9
20260504174543 80 150 7.0 13.0 0.00 0.00 0.00 62 1018.0
20260504174036 80 149 7.0 16.0 0.00 0.00 0.00 63 1018.0
20260504173537 80 194 6.0 16.0 0.00 0.00 0.00 61 1018.0
20260504173042 81 158 4.0 15.0 0.00 0.00 0.00 63 1018.0
20260504172536 80 140 6.0 15.0 0.00 0.00 0.00 63 1018.1
20260504172036 80 155 6.0 14.0 0.00 0.00 0.00 62 1018.1
20260504171540 81 252 7.0 15.0 0.00 0.00 0.00 61 1018.2
20260504171036 81 150 7.0 15.0 0.00 0.00 0.00 61 1018.1
20260504170539 81 180 7.0 15.0 0.00 0.00 0.00 62 1018.3
20260504151036 74 153 5.0 14.0 0.00 0.00 0.00 75 1019.5
20260504150536 73 118 6.0 14.0 0.00 0.00 0.00 75 1019.4
20260504141034 70 165 5.0 14.0 0.00 0.00 0.00 78 1019.5
20260504140534 70 155 5.0 12.0 0.00 0.00 0.00 77 1019.6
20260504130535 65 149 0.0 3.0 0.00 0.00 0.00 84 1019.1
20260504110537 62 0 0.0 2.0 0.00 0.00 0.00 84 1018.7
20260504100536 63 0 0.0 0.0 0.00 0.00 0.00 82 1019.0
20260504081544 64 140 2.0 6.0 0.00 0.00 0.00 78 1019.7
20260504081035 64 142 2.0 6.0 0.00 0.00 0.00 78 1019.7
20260504080534 64 151 3.0 9.0 0.00 0.00 0.00 78 1019.6
20260504050534 67 175 4.0 9.0 0.00 0.00 0.00 72 1021.6
20260504045533 67 142 4.0 14.0 0.00 0.00 0.00 71 1021.7
20260504045033 68 174 4.0 10.0 0.00 0.00 0.00 71 1021.7
20260504044546 68 135 3.0 10.0 0.00 0.00 0.00 71 1021.7
20260504044034 68 129 3.0 9.0 0.00 0.00 0.00 70 1021.7
20260504043535 68 136 4.0 9.0 0.00 0.00 0.00 70 1021.9
20260504043108 68 104 2.0 13.0 0.00 0.00 0.00 70 1021.8
20260504042534 68 111 3.0 13.0 0.00 0.00 0.00 70 1021.8
20260504042035 68 136 4.0 13.0 0.00 0.00 0.00 69 1021.8
20260504041541 68 153 4.0 9.0 0.00 0.00 0.00 69 1021.8
20260504041034 68 95 3.0 10.0 0.00 0.00 0.00 69 1022.0
20260504040534 68 124 4.0 10.0 0.00 0.00 0.00 68 1022.0
20260504040043 68 150 3.0 9.0 0.00 0.00 0.00 68 1022.0
20260504035534 68 77 3.0 9.0 0.00 0.00 0.00 68 1022.1
20260504035034 69 0 2.0 7.0 0.00 0.00 0.00 67 1022.1
20260504034551 69 126 1.0 8.0 0.00 0.00 0.00 67 1022.1
20260504034034 69 0 3.0 9.0 0.00 0.00 0.00 66 1022.0
20260504033534 69 93 3.0 9.0 0.00 0.00 0.00 65 1022.0
20260504033045 69 167 2.0 10.0 0.00 0.00 0.00 65 1022.0
20260504032538 69 81 2.0 10.0 0.00 0.00 0.00 64 1021.9
20260504032036 69 119 3.0 9.0 0.00 0.00 0.00 64 1021.9
20260504031550 69 144 3.0 9.0 0.00 0.00 0.00 64 1021.9
20260504031034 69 152 3.0 8.0 0.00 0.00 0.00 64 1021.9
20260504030534 70 83 2.0 7.0 0.00 0.00 0.00 63 1021.8
20260504030100 70 165 1.0 7.0 0.00 0.00 0.00 62 1021.8
20260504025534 70 139 0.0 7.0 0.00 0.00 0.00 62 1021.9
20260504025034 70 143 2.0 7.0 0.00 0.00 0.00 61 1021.9
20260504024540 71 0 1.0 7.0 0.00 0.00 0.00 61 1021.9
20260504024034 71 113 1.0 9.0 0.00 0.00 0.00 61 1021.9
20260504023534 71 79 2.0 9.0 0.00 0.00 0.00 61 1021.8
20260504023038 71 165 2.0 7.0 0.00 0.00 0.00 61 1021.9
20260504022536 71 148 1.0 7.0 0.00 0.00 0.00 60 1021.8
20260504022035 71 0 1.0 7.0 0.00 0.00 0.00 60 1021.7
20260504021548 72 98 2.0 8.0 0.00 0.00 0.00 59 1021.6
20260504021036 72 102 1.0 8.0 0.00 0.00 0.00 59 1021.5
20260504020540 72 0 0.0 9.0 0.00 0.00 0.00 59 1021.6
20260504020042 72 136 1.0 9.0 0.00 0.00 0.00 58 1021.6
20260504015537 73 149 3.0 9.0 0.00 0.00 0.00 57 1021.5
20260504015036 73 130 1.0 7.0 0.00 0.00 0.00 57 1021.4
20260504014541 73 0 1.0 6.0 0.00 0.00 0.00 56 1021.3
20260504014036 73 76 1.0 6.0 0.00 0.00 0.00 55 1021.2
20260504013538 73 0 0.0 4.0 0.00 0.00 0.00 54 1021.1
20260504013052 74 0 0.0 4.0 0.00 0.00 0.00 53 1021.2
20260504012536 74 0 0.0 3.0 0.00 0.00 0.00 52 1021.3
20260504012036 74 0 0.0 2.0 0.00 0.00 0.00 50 1021.2
20260504011546 75 0 0.0 3.0 0.00 0.00 0.00 49 1021.1
20260504011039 75 0 0.0 5.0 0.00 0.00 0.00 48 1021.2
20260504010536 75 0 0.0 6.0 0.00 0.00 0.00 47 1021.2
20260504010054 76 86 0.0 6.0 0.00 0.00 0.00 47 1021.1
20260504005536 76 0 0.0 2.0 0.00 0.00 0.00 45 1021.3
20260504005037 76 0 0.0 2.0 0.00 0.00 0.00 45 1021.2
20260504004546 77 82 0.0 5.0 0.00 0.00 0.00 45 1021.0
20260504004038 77 109 0.0 5.0 0.00 0.00 0.00 44 1021.1
20260504003536 77 0 1.0 5.0 0.00 0.00 0.00 43 1021.1
20260504003042 78 0 1.0 5.0 0.00 0.00 0.00 42 1021.1